Stations météo

réclame
Mon MeteoGroup
Wick Airport (AWS), Grande-Bretagne (3075): Température de l'air & dewpoint: 18.11.2020 14:00:00 - 24.11.2020 14:00:00 (GMT)Wick Airport (AWS), Grande-Bretagne (3075): Température de l'air -20cm: 18.11.2020 14:00:00 - 24.11.2020 14:00:00 (GMT)Wick Airport (AWS), Grande-Bretagne (3075): Vitesse du vent & gusts: 18.11.2020 14:00:00 - 24.11.2020 14:00:00 (GMT)Wick Airport (AWS), Grande-Bretagne (3075): Direction du vent: 18.11.2020 14:00:00 - 24.11.2020 14:00:00 (GMT)Wick Airport (AWS), Grande-Bretagne (3075): reduced air pressure: 18.11.2020 14:00:00 - 24.11.2020 14:00:00 (GMT)Wick Airport (AWS), Grande-Bretagne (3075): visibility: 18.11.2020 14:00:00 - 24.11.2020 14:00:00 (GMT)Wick Airport (AWS), Grande-Bretagne (3075): Quantités de précipitations: 18.11.2020 14:00:00 - 24.11.2020 14:00:00 (GMT)
Date & Time tt [°C] td [°C] tt -20cm [°C] ff [km/h] ff [knt] fx [km/h] fx [knt] dd ppp [hPa] vv [km] rr [mm]
24.11.2020 14:00:00 8,1 7,0 - 8 4 - - SW 1000,1 18 0,2
24.11.2020 13:00:00 8,2 6,2 - 18 10 - - S 1001,1 11 0,0
24.11.2020 12:00:00 8,5 6,1 - 15 8 - - S 1001,8 14 0,0
24.11.2020 11:00:00 8,9 6,2 - 15 8 - - S 1002,5 30 0,0
24.11.2020 10:00:00 8,8 5,8 - 21 11 - - SSW 1002,8 29 0,0
24.11.2020 09:00:00 8,1 4,9 7,0 18 10 - - S 1002,8 29 0,0
24.11.2020 08:00:00 8,4 5,9 - 16 9 - - S 1002,9 25 0,0
24.11.2020 07:00:00 8,4 6,3 - 13 7 - - S 1003,0 26 0,0
24.11.2020 06:00:00 8,4 6,3 - 15 8 - - SSE 1002,9 28 0,0
24.11.2020 05:00:00 7,0 4,5 - 11 6 - - S 1003,1 45 0,0
24.11.2020 04:00:00 7,8 4,5 - 22 12 - - SW 1003,0 45 0,0
24.11.2020 03:00:00 7,6 5,8 - 18 10 - - SSW 1003,0 45 0,0
24.11.2020 02:00:00 7,4 5,8 - 18 10 - - SSW 1002,7 30 0,0
24.11.2020 01:00:00 7,4 5,6 - 22 12 - - SSW 1002,8 35 0,0
24.11.2020 00:00:00 7,6 5,8 - 21 11 - - SSW 1003,0 45 0,0
23.11.2020 23:00:00 7,9 5,5 - 26 14 - - SSW 1003,3 40 0,0
23.11.2020 22:00:00 8,1 5,8 - 24 13 - - SSW 1003,1 35 0,0
23.11.2020 21:00:00 8,0 5,7 - 24 13 - - SSW 1003,5 30 0,2
23.11.2020 20:00:00 8,5 6,6 - 26 14 - - SSW 1003,7 27 0,2
23.11.2020 19:00:00 8,3 6,6 - 21 11 - - SW 1004,0 22 0,0
23.11.2020 18:00:00 8,5 6,4 - 24 13 46 25 SSW 1003,8 28 0,0
23.11.2020 17:00:00 8,6 6,2 - 31 17 55 30 S 1003,8 40 0,0
23.11.2020 16:00:00 8,5 4,8 - 35 19 55 30 S 1004,3 50 0,0
23.11.2020 15:00:00 8,6 4,4 - 37 20 65 35 S 1005,4 40 0,0
23.11.2020 14:00:00 8,5 3,9 - 37 20 57 31 S 1005,8 35 0,0
23.11.2020 13:00:00 8,3 2,7 - 39 21 61 33 S 1007,4 35 0,0
23.11.2020 12:00:00 8,2 3,1 - 42 23 61 33 SSW 1008,1 30 0,0
23.11.2020 11:00:00 8,3 4,2 - 31 17 55 30 SSW 1009,5 30 0,0
23.11.2020 10:00:00 8,5 5,5 - 35 19 54 29 SSW 1010,8 35 0,0
23.11.2020 09:00:00 8,0 6,2 6,9 22 12 - - SSW 1011,7 28 0,0
23.11.2020 08:00:00 7,8 5,6 - 24 13 - - S 1012,1 35 0,0
23.11.2020 07:00:00 7,5 5,6 - 22 12 - - S 1012,6 35 0,0
23.11.2020 06:00:00 6,6 4,7 - 16 9 - - S 1013,3 45 0,0
23.11.2020 05:00:00 5,7 4,0 - 22 12 - - S 1014,1 50 0,0
23.11.2020 04:00:00 5,1 3,2 - 13 7 - - S 1014,6 40 0,0
23.11.2020 03:00:00 5,1 3,4 - 16 9 - - SSW 1015,0 50 0,0
23.11.2020 02:00:00 4,3 2,2 - 18 10 - - SW 1015,1 45 0,0
23.11.2020 01:00:00 4,0 2,2 - 15 8 - - SW 1015,4 45 0,0
23.11.2020 00:00:00 3,1 1,5 - 15 8 - - SW 1015,2 45 0,0
22.11.2020 23:00:00 2,7 1,0 - 11 6 - - WSW 1015,4 50 0,0
22.11.2020 22:00:00 3,9 2,0 - 21 11 - - WSW 1015,0 50 0,0
22.11.2020 21:00:00 3,5 1,5 - 16 9 - - WSW 1015,0 50 0,0
22.11.2020 20:00:00 3,7 2,0 - 16 9 - - WSW 1014,9 50 0,0
22.11.2020 19:00:00 4,2 2,3 - 21 11 - - WSW 1014,8 50 0,0
22.11.2020 18:00:00 4,3 2,3 - 26 14 - - WSW 1014,2 50 0,0
22.11.2020 17:00:00 4,0 2,3 - 24 13 46 25 W 1014,0 45 0,2
22.11.2020 16:00:00 5,7 2,8 - 26 14 - - WSW 1013,8 35 0,0
22.11.2020 15:00:00 5,4 2,4 - 29 16 - - WSW 1013,8 35 0,0
22.11.2020 14:00:00 5,3 3,3 - 24 13 54 29 WSW 1014,0 30 0,0
22.11.2020 13:00:00 6,4 3,6 - 24 13 - - WSW 1014,0 23 0,0
22.11.2020 12:00:00 6,2 3,6 - 22 12 48 26 WSW 1013,9 25 0,0
22.11.2020 11:00:00 6,6 3,4 - 35 19 54 29 WSW 1013,4 23 0,0
22.11.2020 10:00:00 5,8 3,1 - 31 17 46 25 WSW 1012,3 45 0,0
22.11.2020 09:00:00 5,6 2,9 7,2 31 17 48 26 W 1011,9 40 0,0
22.11.2020 08:00:00 5,9 3,6 - 39 21 61 33 W 1010,9 18 0,0
22.11.2020 07:00:00 5,7 3,5 - 41 22 59 32 W 1009,7 15 0,0
22.11.2020 06:00:00 5,9 4,3 - 35 19 74 40 W 1009,1 14 0,4
22.11.2020 05:00:00 6,0 3,8 - 50 27 76 41 W 1008,0 16 0,0
22.11.2020 04:00:00 6,0 3,8 - 48 26 80 43 W 1006,5 19 0,2
22.11.2020 03:00:00 6,2 2,9 - 50 27 72 39 W 1005,8 23 0,0
22.11.2020 02:00:00 5,7 2,3 - 35 19 68 37 SW 1006,4 19 0,0
22.11.2020 01:00:00 4,9 1,6 - 34 18 50 27 SW 1006,6 29 0,0
22.11.2020 00:00:00 4,8 2,0 - 31 17 59 32 SW 1006,6 22 0,0
21.11.2020 23:00:00 5,1 2,5 - 37 20 55 30 WSW 1006,5 30 0,0
21.11.2020 22:00:00 5,0 2,5 - 39 21 57 31 SW 1006,3 26 0,0
21.11.2020 21:00:00 4,8 2,7 - 31 17 61 33 SW 1006,6 30 0,6
21.11.2020 20:00:00 4,9 1,8 - 44 24 65 35 SW 1006,4 35 0,0
21.11.2020 19:00:00 5,0 2,1 - 42 23 61 33 SW 1006,5 25 0,0
21.11.2020 18:00:00 5,3 2,3 - 44 24 63 34 SW 1006,5 28 0,0
21.11.2020 17:00:00 5,5 2,3 - 35 19 50 27 SW 1006,5 16 0,0
21.11.2020 16:00:00 5,7 2,1 - 31 17 48 26 SW 1006,5 29 0,0
21.11.2020 15:00:00 6,4 2,5 - 28 15 59 32 SW 1006,3 21 0,0
21.11.2020 14:00:00 7,0 2,4 - 35 19 63 34 SW 1006,4 24 0,0
21.11.2020 13:00:00 7,6 2,6 - 35 19 55 30 SW 1006,3 27 0,0
21.11.2020 12:00:00 7,0 2,4 - 41 22 57 31 WSW 1006,1 50 0,0
21.11.2020 11:00:00 6,2 3,2 - 44 24 61 33 WSW 1006,2 35 0,0
21.11.2020 10:00:00 6,1 2,9 - 35 19 50 27 SW 1005,4 26 0,0
21.11.2020 09:00:00 5,2 3,4 7,7 42 23 67 36 WSW 1005,5 30 0,4
21.11.2020 08:00:00 6,2 2,9 - 39 21 67 36 WSW 1004,8 30 0,0
21.11.2020 07:00:00 6,6 3,0 - 42 23 57 31 WSW 1004,7 20 0,0
21.11.2020 06:00:00 5,9 2,7 - 26 14 57 31 WSW 1004,8 17 0,0
21.11.2020 05:00:00 7,6 3,7 - 44 24 61 33 WSW 1004,2 17 0,0
21.11.2020 04:00:00 7,0 4,6 - 39 21 63 34 SW 1004,2 20 0,0
21.11.2020 03:00:00 7,6 4,6 - 44 24 78 42 WSW 1004,0 21 0,0
21.11.2020 02:00:00 8,9 4,7 - 46 25 70 38 WSW 1003,6 13 0,0
21.11.2020 01:00:00 9,4 4,6 - 37 20 55 30 WSW 1004,2 10 0,0
21.11.2020 00:00:00 9,7 4,9 - 39 21 57 31 WSW 1004,7 9 0,0
20.11.2020 23:00:00 10,7 6,3 - 35 19 61 33 WSW 1004,9 9 0,0
20.11.2020 22:00:00 11,4 6,3 - 42 23 83 45 SW 1005,0 15 0,0
20.11.2020 21:00:00 11,7 6,6 - 65 35 91 49 WSW 1004,2 24 0,0
20.11.2020 20:00:00 11,8 9,8 - 39 21 57 31 SSW 1004,1 30 0,0
20.11.2020 19:00:00 11,4 9,5 - 39 21 59 32 SSW 1004,8 30 0,0
20.11.2020 18:00:00 11,2 9,2 - 41 22 61 33 SSW 1004,9 29 0,0
20.11.2020 17:00:00 10,6 8,7 - 35 19 54 29 SSW 1006,0 23 0,0
20.11.2020 16:00:00 10,2 8,3 - 29 16 50 27 S 1007,7 22 0,0
20.11.2020 15:00:00 9,2 7,8 - 29 16 46 25 SSE 1009,2 17 1,8
20.11.2020 14:00:00 8,2 7,0 - 28 15 46 25 SSE 1010,5 3,5 4,0
20.11.2020 13:00:00 8,3 6,2 - 31 17 50 27 S 1012,5 9 0,2
20.11.2020 12:00:00 7,9 5,0 - 31 17 54 29 S 1014,3 30 0,0
20.11.2020 11:00:00 7,4 5,0 - 29 16 48 26 SSE 1016,4 23 0,0
20.11.2020 10:00:00 7,5 3,6 - 26 14 - - SSE 1017,3 40 0,0
20.11.2020 09:00:00 6,7 2,7 7,7 26 14 - - SSE 1019,0 30 0,0
20.11.2020 08:00:00 6,4 2,3 - 24 13 - - SSE 1020,4 40 0,0
20.11.2020 07:00:00 6,1 1,2 - 26 14 - - SSE 1021,4 35 0,0
20.11.2020 06:00:00 6,1 1,1 - 22 12 - - SSE 1022,7 50 0,0
20.11.2020 05:00:00 5,5 -0,3 - 21 11 - - SSE 1023,7 50 0,0
20.11.2020 04:00:00 3,5 0,4 - 13 7 - - S 1024,6 45 0,0
20.11.2020 03:00:00 2,7 -0,2 - 11 6 - - S 1025,6 45 0,0
20.11.2020 02:00:00 2,6 -0,8 - 11 6 - - S 1025,6 50 0,0
20.11.2020 01:00:00 1,6 -1,2 - 5 3 - - SW 1026,6 50 0,0
20.11.2020 00:00:00 1,3 -1,0 - 11 6 57 31 WSW 1027,2 45 0,0
19.11.2020 23:00:00 1,6 -0,4 - 15 8 - - WSW 1027,3 45 0,0
19.11.2020 22:00:00 1,9 0,2 - 16 9 - - WSW 1027,3 40 0,0
19.11.2020 21:00:00 2,6 0,7 - 13 7 - - WSW 1027,1 50 0,0
19.11.2020 20:00:00 1,9 0,7 - 13 7 - - NW 1027,1 35 0,2
19.11.2020 19:00:00 2,3 1,3 - 9 5 - - W 1027,1 18 0,4
19.11.2020 18:00:00 2,0 -0,4 - 9 5 - - W 1026,8 30 0,0
19.11.2020 17:00:00 2,7 0,3 - 16 9 - - WNW 1025,9 35 0,0
19.11.2020 16:00:00 2,7 -1,8 - 21 11 - - NW 1024,8 45 0,0
19.11.2020 15:00:00 3,0 0,4 - 28 15 63 34 WNW 1024,5 40 0,2
19.11.2020 14:00:00 4,2 -0,3 - 37 20 57 31 WNW 1024,7 40 0,0
19.11.2020 13:00:00 3,7 0,5 - 31 17 50 27 WNW 1023,9 50 0,0
19.11.2020 12:00:00 3,1 1,5 - 34 18 61 33 WNW 1023,3 30 0,2
19.11.2020 11:00:00 3,1 0,4 - 35 19 55 30 WNW 1022,8 14 0,0
19.11.2020 10:00:00 3,0 -0,9 - 22 12 - - WNW 1021,3 45 0,0
19.11.2020 09:00:00 2,0 -0,5 8,7 31 17 55 30 WNW 1020,6 20 0,6
19.11.2020 08:00:00 2,3 0,2 - 31 17 - - NNW 1019,7 30 0,6
19.11.2020 07:00:00 1,1 0,1 - 24 13 55 30 NNW 1019,2 17 0,4
19.11.2020 06:00:00 2,9 -1,4 - 29 16 52 28 NNW 1017,7 35 0,0
19.11.2020 05:00:00 3,6 -1,5 - 37 20 59 32 N 1015,9 30 0,0
19.11.2020 04:00:00 2,9 0,6 - 39 21 59 32 NNW 1014,4 19 0,0
19.11.2020 03:00:00 3,9 -1,0 - 41 22 67 36 N 1012,7 28 0,0
19.11.2020 02:00:00 3,7 0,3 - 50 27 72 39 NNW 1010,7 22 0,0
19.11.2020 01:00:00 4,3 1,3 - 54 29 72 39 NNW 1008,0 17 0,0
19.11.2020 00:00:00 4,0 2,1 - 52 28 85 46 NNW 1005,6 5 0,2
18.11.2020 23:00:00 4,7 3,0 - 59 32 89 48 N 1002,6 10 0,6
18.11.2020 22:00:00 5,1 3,8 - 65 35 94 51 N 999,0 5 0,8
18.11.2020 21:00:00 5,9 4,8 - 59 32 87 47 N 995,5 4,6 0,8
18.11.2020 20:00:00 6,4 5,4 - 48 26 61 33 NNW 992,7 7 0,2
18.11.2020 19:00:00 6,2 4,3 - 41 22 61 33 WSW 990,7 50 0,0
18.11.2020 18:00:00 7,6 5,5 - 39 21 57 31 SW 991,0 35 0,2
18.11.2020 17:00:00 8,7 6,8 - 28 15 - - WSW 991,0 45 0,0
18.11.2020 16:00:00 9,3 7,4 - 21 11 - - SW 991,1 50 0,0
18.11.2020 15:00:00 9,9 7,8 - 16 9 - - WSW 991,5 50 0,0
18.11.2020 14:00:00 9,9 7,8 - 28 15 - - W 991,5 50 0,0

tt = Température de l'air
td = dewpoint
tt -20cm = Température de l'air -20cm
ff = Vitesse du vent
fx = gusts
dd = Direction du vent
ppp = reduced air pressure
vv = visibility
rr = Quantités de précipitations

stations d'obs. à proximité